This demonstration page uses our WeatherBlox Daily Observations layout. Learn more.

41.55636, -103.73856

Hourly Observations for December 6, 2016

Temp ( °F °C ) Dew Point ( °F °C ) Humidity (%) Winds ( mph kmh ) Pressure ( in mb ) Visibility ( mi km ) Precip ( " mm )
12:53 am 00:53 Clear 13 -10.6 3 -16.1 64 64 WNW 10 17 30.1 1019 10 16.0934 0 0
1:53 am 01:53 Clear 11 -11.7 3 -16.1 70 70 NW 8 13 30.11 1020 10 16.0934 0 0
2:53 am 02:53 Clear 6 -14.4 1 -17.2 79 79 NNW 5 7 30.13 1020 10 16.0934 0 0
3:53 am 03:53 Clear 6 -14.4 0 -17.8 76 76 WNW 6 9 30.14 1021 10 16.0934 0 0
4:53 am 04:53 Clear 6 -14.4 0 -17.8 76 76 Calm 30.15 1021 10 16.0934 0 0
5:53 am 05:53 Clear 4 -15.6 -2 -18.9 76 76 N 9 15 30.16 1021 10 16.0934 0 0
6:53 am 06:53 Clear 2 -16.7 -4 -20 76 76 N 8 13 30.18 1022 10 16.0934 0 0
7:53 am 07:53 Sunny 9 -12.8 2 -16.7 73 73 NW 7 11 30.16 1021 10 16.0934 0 0
8:53 am 08:53 Sunny 15 -9.4 5 -15 64 64 WNW 10 17 30.17 1022 10 16.0934 0 0
9:53 am 09:53 Sunny 20 -6.7 5 -15 52 52 WNW 8 13 30.16 1021 10 16.0934 0 0
10:53 am 10:53 Sunny 24 -4.4 5 -15 44 44 WNW 9 15 30.14 1021 10 16.0934 0 0
11:53 am 11:53 Sunny 26 -3.3 2 -16.7 35 35 WNW 7 11 30.1 1019 10 16.0934 0 0
12:53 pm 12:53 Sunny 29 -1.7 2 -16.7 31 31 NW 7 11 30.07 1018 10 16.0934 0 0
1:53 pm 13:53 Sunny 26 -3.3 0 -17.8 32 32 NW 8 13 30.06 1018 10 16.0934 0 0
2:53 pm 14:53 Sunny 25 -3.9 0 -17.8 33 33 NW 5 7 30.09 1019 10 16.0934 0 0
3:53 pm 15:53 Mostly Sunny 23 -5 1 -17.2 38 38 N 8 13 30.11 1020 10 16.0934 0 0
4:53 pm 16:53 Partly Cloudy 21 -6.1 2 -16.7 43 43 N 8 13 30.14 1021 10 16.0934 0 0
5:53 pm 17:53 Cloudy 19 -7.2 3 -16.1 49 49 NNE 9 15 30.16 1021 10 16.0934 0 0
6:53 pm 18:53 Cloudy 17 -8.3 3 -16.1 54 54 N 12 19 30.18 1022 10 16.0934 0 0
7:53 pm 19:53 Cloudy 17 -8.3 3 -16.1 54 54 NNE 6 9 30.18 1022 10 16.0934 0 0
8:53 pm 20:53 Cloudy 17 -8.3 2 -16.7 51 51 NNW 5 7 30.19 1022 10 16.0934 0 0
9:53 pm 21:53 Cloudy 17 -8.3 3 -16.1 54 54 Calm 30.17 1022 10 16.0934 0 0
10:53 pm 22:53 Cloudy 15 -9.4 2 -16.7 56 56 Calm 30.19 1022 10 16.0934 0 0
11:53 pm 23:53 Cloudy 16 -8.9 -1 -18.3 47 47 N 9 15 30.17 1022 10 16.0934 0 0

Powered by AerisWeather